Melbourne Airport, Australia

7:37 AM AEST on June 24, 2017 (GMT +1000)
Melbourne International

Weather History for YMML - March, 2013

Change the Weather History Date:

Friday, March 8, 2013

  Actual Average Record
Temperature  
Mean Temperature 79 °F -  
Max Temperature 93 °F 70 °F 104 °F (2016)
Min Temperature 65 °F 51 °F 48 °F (1998)
Cooling Degree Days 14    
Growing Degree Days 29 (Base 50)    
Moisture  
Dew Point 62 °F    
Average Humidity 65    
Maximum Humidity 94    
Minimum Humidity 24    
Precipitation  
Precipitation 0.00 in 0.05 in - ()
Sea Level Pressure  
Sea Level Pressure 30.04 in    
Wind  
Wind Speed 6 mph ()    
Max Wind Speed 15 mph    
Max Gust Speed -    
Visibility 8.6 miles    
Events      
Averages and records for this station are not official NWS values.
T = Trace of Precipitation, MM = Missing Value Source: Averaged Metar Reports

Daily Weather History Graph

Daily Weather History Graph

Search for Another Location

Airport or City:

Trip Planner

Search our weather history database for the weather conditions in past years. The results will help you decide how hot, cold, wet, or windy it might be!

Date:

Astronomy

Mar. 08, 2013 Rise Set
Actual Time 7:11 AM AEDT 7:50 PM AEDT
Civil Twilight 6:45 AM AEDT 8:16 PM AEDT
Nautical Twilight 6:14 AM AEDT 8:47 PM AEDT
Astronomical Twilight 5:42 AM AEDT 9:19 PM AEDT
Moon 3:03 AM AEDT (3/8) 5:15 PM AEDT (3/8)
Length of Visible Light 13h 31m
Length of Day
12h 38m
Waning Crescent, 17% of the Moon is Illuminated
Mar 8
Waning Crescent
Mar 12
New
Mar 20
First Quarter
Mar 27
Full
Apr 3
Last Quarter

Hourly Weather History & Observations

Time (AEDT) Temp. Heat Index Dew Point Humidity Pressure Visibility Wind Dir Wind Speed Gust Speed Precip Events Conditions
12:00 AM 70 °F - 63 °F 72% 30.07 in 19 mi WSW 8.1 mph - -   Partly Cloudy
12:00 AM 69.8 °F - 62.6 °F 78% 30.06 in - WSW 8.1 mph - N/A   Clear
12:30 AM 69.8 °F - 62.6 °F 78% 30.06 in - WSW 6.9 mph - N/A   Clear
1:00 AM 68.0 °F - 62.6 °F 83% 30.06 in - West 5.8 mph - N/A   Clear
1:30 AM 68.0 °F - 60.8 °F 78% 30.06 in - WNW 4.6 mph - N/A   Clear
2:00 AM 67 °F - 61 °F 76% 30.06 in - WNW 4.6 mph - -  
2:00 AM 68.0 °F - 60.8 °F 78% 30.06 in - WNW 4.6 mph - N/A   Clear
2:30 AM 66.2 °F - 60.8 °F 83% 30.06 in - West 5.8 mph - N/A   Clear
3:00 AM 66 °F - 61 °F 79% 30.06 in 19 mi West 5.8 mph - -   Partly Cloudy
3:00 AM 66.2 °F - 60.8 °F 83% 30.06 in - West 5.8 mph - N/A   Clear
3:30 AM 66.2 °F - 62.6 °F 88% 30.04 in - SW 5.8 mph - N/A   Clear
4:00 AM 68.0 °F - 62.6 °F 83% 30.06 in - West 5.8 mph - N/A   Clear
4:30 AM 68.0 °F - 64.4 °F 88% 30.06 in - WSW 8.1 mph - N/A   Clear
5:00 AM 67 °F - 64 °F 87% 30.07 in - West 6.9 mph - -  
5:00 AM 66.2 °F - 64.4 °F 94% 30.06 in 6.2 mi West 6.9 mph - N/A   Mostly Cloudy
5:30 AM 66.2 °F - 64.4 °F 94% 30.06 in 6.2 mi WNW 4.6 mph - N/A   Mostly Cloudy
6:00 AM 66 °F - 64 °F 90% 30.08 in 16 mi WNW 5.8 mph - -   Partly Cloudy
6:00 AM 66.2 °F - 64.4 °F 94% 30.06 in 6.2 mi WNW 5.8 mph - N/A   Mostly Cloudy
6:17 AM 66.2 °F - 64.4 °F 94% 30.06 in 6.2 mi West 6.9 mph - N/A   Mostly Cloudy
6:30 AM 66.2 °F - 64.4 °F 94% 30.06 in 6.2 mi West 6.9 mph - N/A   Mostly Cloudy
7:00 AM 66.2 °F - 64.4 °F 94% 30.09 in 5.6 mi West 4.6 mph - N/A   Mostly Cloudy
7:25 AM 66.2 °F - 64.4 °F 94% 30.09 in 4.3 mi West 4.6 mph - N/A   Mostly Cloudy
7:30 AM 66.2 °F - 64.4 °F 94% 30.09 in 4.3 mi West 4.6 mph - N/A   Mostly Cloudy
8:00 AM 66 °F - 64 °F 90% 30.10 in - NW 5.8 mph - -  
8:00 AM 66.2 °F - 64.4 °F 94% 30.09 in 5.6 mi NW 5.8 mph - N/A   Mostly Cloudy
8:20 AM 66.2 °F - 64.4 °F 94% 30.09 in 3.7 mi WNW 5.8 mph - N/A   Mostly Cloudy
8:30 AM 66.2 °F - 64.4 °F 94% 30.09 in 4.3 mi WNW 5.8 mph - N/A   Scattered Clouds
8:38 AM 66.2 °F - 64.4 °F 94% 30.09 in 5.0 mi WNW 5.8 mph - N/A   Mostly Cloudy
8:53 AM 68.0 °F - 64.4 °F 88% 30.12 in 6.2 mi WNW 5.8 mph - N/A   Mostly Cloudy
9:00 AM 68 °F - 64 °F 82% 30.12 in 7 mi WNW 6.9 mph - -   Haze
9:00 AM 68.0 °F - 64.4 °F 88% 30.12 in 6.2 mi WNW 6.9 mph - N/A   Mostly Cloudy
9:30 AM 69.8 °F - 64.4 °F 83% 30.12 in - West 5.8 mph - N/A   Clear
10:00 AM 71.6 °F - 64.4 °F 78% 30.12 in - SW 1.2 mph - N/A   Clear
10:30 AM 73.4 °F - 64.4 °F 73% 30.09 in - West 2.3 mph - N/A   Clear
11:00 AM 75 °F - 63 °F 58% 30.11 in - Calm Calm - -  
11:00 AM 75.2 °F - 62.6 °F 65% 30.09 in - Calm Calm - N/A   Clear
11:30 AM 78.8 °F - 64.4 °F 61% 30.09 in - SE 4.6 mph - N/A   Clear
12:00 PM 81 °F - 62 °F 42% 30.09 in 11 mi ENE 4.6 mph - -   Partly Cloudy
12:00 PM 80.6 °F 81.8 °F 62.6 °F 54% 30.09 in - ENE 4.6 mph - N/A   Clear
12:30 PM 82.4 °F 83.4 °F 62.6 °F 51% 30.06 in - ESE 8.1 mph - N/A   Clear
1:00 PM 87.8 °F 88.5 °F 62.6 °F 43% 30.04 in - East 6.9 mph - N/A   Clear
1:30 PM 89.6 °F 89.5 °F 60.8 °F 38% 30.04 in - SE 8.1 mph - N/A   Clear
2:00 PM 91 °F - 60 °F 25% 30.02 in - SE 8.1 mph - -  
2:00 PM 91.4 °F 90.7 °F 59.0 °F 34% 30.01 in - SE 8.1 mph - N/A   Clear
2:30 PM 93.2 °F 93.3 °F 60.8 °F 34% 30.01 in - SE 6.9 mph - N/A   Clear
3:00 PM 93 °F - 62 °F 26% 30.00 in 11 mi SSE 12.7 mph - -   Haze
3:00 PM 93.2 °F 94.1 °F 62.6 °F 36% 30.01 in - SSE 12.7 mph - N/A   Clear
3:30 PM 91.4 °F 92.1 °F 62.6 °F 38% 29.98 in - SSE 11.5 mph - N/A   Clear
4:00 PM 93.2 °F 94.1 °F 62.6 °F 36% 29.98 in - SSE 12.7 mph - N/A   Clear
4:30 PM 89.6 °F 89.5 °F 60.8 °F 38% 29.98 in - South 15.0 mph - N/A   Clear
5:00 PM 88 °F - 60 °F 29% 29.97 in - South 12.7 mph - -  
5:00 PM 87.8 °F 87.6 °F 60.8 °F 40% 29.98 in - South 12.7 mph - N/A   Clear
5:30 PM 87.8 °F 87.1 °F 59.0 °F 38% 29.98 in - South 12.7 mph - N/A   Clear
6:00 PM 88 °F - 56 °F 24% 29.97 in 15 mi South 11.5 mph - -   Haze
6:00 PM 87.8 °F 86.1 °F 55.4 °F 33% 29.98 in - South 11.5 mph - N/A   Clear
6:30 PM 86.0 °F 85.4 °F 59.0 °F 40% 29.98 in - South 9.2 mph - N/A   Clear
7:00 PM 86.0 °F 86.1 °F 60.8 °F 43% 29.98 in - South 8.1 mph - N/A   Clear
7:30 PM 84.2 °F 85.0 °F 62.6 °F 48% 29.98 in - South 5.8 mph - N/A   Clear
8:00 PM 82 °F - 62 °F 41% 29.98 in - SW 3.5 mph - -  
8:00 PM 82.4 °F 83.4 °F 62.6 °F 51% 29.98 in - SW 3.5 mph - N/A   Clear
8:30 PM 80.6 °F 81.8 °F 62.6 °F 54% 29.98 in - West 5.8 mph - N/A   Clear
9:00 PM 79 °F - 62 °F 47% 30.00 in 16 mi West 5.8 mph - -   Haze
9:00 PM 78.8 °F - 62.6 °F 57% 30.01 in - West 5.8 mph - N/A   Clear
9:30 PM 78.8 °F - 62.6 °F 57% 30.01 in - West 4.6 mph - N/A   Clear
10:00 PM 77.0 °F - 62.6 °F 61% 30.01 in - WNW 6.9 mph - N/A   Clear
10:30 PM 77.0 °F - 60.8 °F 57% 30.01 in - NW 8.1 mph - N/A   Clear
11:00 PM 78 °F - 61 °F 46% 30.00 in - NW 8.1 mph - -  
11:00 PM 77.0 °F - 60.8 °F 57% 30.01 in - NW 8.1 mph - N/A   Clear
11:30 PM 77.0 °F - 60.8 °F 57% 30.01 in - NNW 3.5 mph - N/A   Clear